Westhampton Beach, NY

2:25 PM EDT on August 21, 2017 (GMT -0400)
The Gabreski

Weather History for KFOK - March, 2014

Change the Weather History Date:

Thursday, March 6, 2014

  Actual Average Record
Temperature  
Mean Temperature 22 °F -  
Max Temperature 30 °F 40 °F 53 °F (2004)
Min Temperature 15 °F 25 °F 0 °F (2015)
Degree Days  
Heating Degree Days 42    
Moisture  
Dew Point 7 °F    
Average Humidity 51    
Maximum Humidity 68    
Minimum Humidity 30    
Precipitation  
Precipitation 0.00 in - - ()
Sea Level Pressure  
Sea Level Pressure 30.55 in    
Wind  
Wind Speed 12 mph (NNE)    
Max Wind Speed 20 mph    
Max Gust Speed 29 mph    
Visibility 10 miles    
Events      
Averages and records for this station are not official NWS values.
T = Trace of Precipitation, MM = Missing Value Source: NWS Daily Summary

Daily Weather History Graph

Daily Weather History Graph

Search for Another Location

Airport or City:

Trip Planner

Search our weather history database for the weather conditions in past years. The results will help you decide how hot, cold, wet, or windy it might be!

Date:

Astronomy

Mar. 06, 2014 Rise Set
Actual Time 6:16 AM EST 5:47 PM EST
Civil Twilight 5:49 AM EST 6:14 PM EST
Nautical Twilight 5:17 AM EST 6:46 PM EST
Astronomical Twilight 4:45 AM EST 7:18 PM EST
Moon 9:20 AM EST (3/6) 11:53 PM EST (3/6)
Length of Visible Light 12h 25m
Length of Day
11h 30m
Waxing Crescent, 32% of the Moon is Illuminated
Mar 6
Waxing Crescent
Mar 8
First Quarter
Mar 16
Full
Mar 23
Last Quarter
Mar 30
New

Hourly Weather History & Observations

Time (EST) Temp. Windchill Dew Point Humidity Pressure Visibility Wind Dir Wind Speed Gust Speed Precip Events Conditions
12:46 AM 26.6 °F 14.7 °F 14.0 °F 59% 30.46 in 10.0 mi NE 15.0 mph - N/A   Overcast
12:53 AM 25.0 °F 10.9 °F 14.0 °F 63% 30.46 in 10.0 mi NE 19.6 mph - N/A   Overcast
1:12 AM 24.8 °F 12.4 °F 12.2 °F 59% 30.47 in 10.0 mi NNE 15.0 mph - N/A   Scattered Clouds
1:53 AM 23.0 °F 8.3 °F 9.0 °F 55% 30.49 in 10.0 mi NNE 19.6 mph 27.6 mph N/A   Clear
2:53 AM 21.9 °F 7.8 °F 5.0 °F 48% 30.48 in 10.0 mi NNE 17.3 mph 28.8 mph N/A   Clear
3:53 AM 19.9 °F 5.7 °F 6.1 °F 55% 30.50 in 10.0 mi NNE 16.1 mph 23.0 mph N/A   Clear
4:53 AM 19.0 °F 5.0 °F 3.0 °F 50% 30.53 in 10.0 mi NNE 15.0 mph - N/A   Clear
5:53 AM 18.0 °F 5.4 °F 5.0 °F 57% 30.57 in 10.0 mi NNE 11.5 mph - N/A   Clear
6:53 AM 18.0 °F 3.6 °F 5.0 °F 57% 30.57 in 10.0 mi NNE 15.0 mph 20.7 mph N/A   Clear
7:53 AM 19.9 °F 4.3 °F 3.9 °F 50% 30.60 in 10.0 mi NNE 19.6 mph 25.3 mph N/A   Clear
8:53 AM 21.9 °F 7.3 °F 3.9 °F 46% 30.62 in 10.0 mi NNE 18.4 mph - N/A   Clear
9:53 AM 24.1 °F 11.5 °F 3.9 °F 42% 30.63 in 10.0 mi NNE 15.0 mph 19.6 mph N/A   Clear
10:53 AM 26.1 °F 16.8 °F 5.0 °F 41% 30.64 in 10.0 mi NE 9.2 mph - N/A   Clear
11:53 AM 27.0 °F 18.0 °F 3.9 °F 37% 30.63 in 10.0 mi North 9.2 mph - N/A   Clear
12:53 PM 28.0 °F 19.3 °F 3.0 °F 34% 30.60 in 10.0 mi NNE 9.2 mph - N/A   Clear
1:53 PM 30.0 °F 23.2 °F 1.9 °F 30% 30.57 in 10.0 mi NNE 6.9 mph - N/A   Clear
2:53 PM 28.9 °F 20.4 °F 1.0 °F 30% 30.58 in 10.0 mi North 9.2 mph - N/A   Clear
3:53 PM 28.9 °F 23.9 °F 1.9 °F 32% 30.56 in 10.0 mi Variable 4.6 mph - N/A   Clear
4:53 PM 27.0 °F 21.6 °F 6.1 °F 41% 30.57 in 10.0 mi SSE 4.6 mph - N/A   Clear
5:53 PM 25.0 °F - 6.1 °F 45% 30.58 in 10.0 mi Calm Calm - N/A   Clear
6:53 PM 19.0 °F - 3.0 °F 50% 30.58 in 10.0 mi Calm Calm - N/A   Clear
7:53 PM 15.1 °F - 3.0 °F 59% 30.58 in 10.0 mi Calm Calm - N/A   Clear
8:53 PM 15.1 °F - 3.9 °F 61% 30.57 in 10.0 mi Calm Calm - N/A   Clear
9:53 PM 18.0 °F 11.1 °F 7.0 °F 62% 30.55 in 10.0 mi NE 4.6 mph - N/A   Mostly Cloudy
10:39 PM 23.0 °F 17.0 °F 12.2 °F 63% 30.53 in 10.0 mi NE 4.6 mph - N/A   Scattered Clouds
10:49 PM 24.8 °F 17.9 °F 12.2 °F 59% 30.52 in 10.0 mi NE 5.8 mph - N/A   Mostly Cloudy
10:53 PM 25.0 °F 19.3 °F 14.0 °F 63% 30.53 in 10.0 mi NE 4.6 mph - N/A   Mostly Cloudy
11:53 PM 23.0 °F 17.0 °F 14.0 °F 68% 30.52 in 10.0 mi ENE 4.6 mph - N/A   Scattered Clouds